Flag for Netherlands Weather past 2 weeks in Kralendijk (Bonaire), Netherlands

Now
86 °F

Warm.


Feels Like: 95 °F
Forecast: N/A
Wind: 18 mph from East

Location: Flamingo Airport - Bonaire

Current Time: Sep 20, 2014 at 6:38:07 PM

Latest Report: Sep 20, 2014 at 6:00 PM


Visibility: N/A

Pressure: 29.80 "Hg

Humidity: 70%

Dew point: 75 °F

Location of Kralendijk (Bonaire)Location

Historic Weather in Kralendijk (Bonaire) — Graph

°F

Kralendijk (Bonaire) temperature yesterday

Maximum temperature yesterday: 90 °F (at 11:00 AM)
Minimum temperature yesterday: 82 °F (at 12:00 AM)
Average temperature yesterday: 85 °F

Past Weeks' High & Low Weather Summary

 TemperatureHumidityPressure
High90 °F (Sep 5, 4:00 PM)84% (Sep 6, 12:00 AM)29.98 "Hg (Sep 6, 12:00 AM)
Low81 °F (Sep 10, 7:00 AM)59% (Sep 10, 2:00 PM)29.80 "Hg (Sep 5, 5:00 PM)
Average85 °F73%29.88 "Hg
* Reported Sep 5 4:00 PM — Sep 20 4:00 PM, Kralendijk (Bonaire), Weather by CustomWeather, © 2014

Note: Actual official high and low records may vary slightly from our data, if they occured in-between our weather recording intervals... More about our weather records

Advertising

Kralendijk (Bonaire) weather history for previous 24 hours

 ConditionsComfort  
Time TempWeatherWind HumidityBarometerVisibility
4:00 PM
Sep 20
88 °FWarm.21 mph62%29.80 "HgN/A
3:00 PM88 °FScattered showers. Scattered clouds.20 mph66%29.83 "HgN/A
2:00 PM88 °FScattered showers. Partly sunny.12 mph66%29.83 "HgN/A
1:00 PM88 °FScattered clouds.17 mph66%29.89 "HgN/A
9:00 AM86 °FScattered clouds.17 mph75%29.92 "HgN/A
8:00 AM84 °FWarm.15 mph79%29.89 "HgN/A
7:00 AM82 °FWarm.12 mph84%29.86 "HgN/A
6:00 AM82 °FWarm.8 mph84%29.83 "HgN/A
3:00 AM82 °FWarm.8 mph79%29.83 "HgN/A
2:00 AM82 °FWarm.9 mph79%29.83 "HgN/A
1:00 AM82 °FWarm.10 mph79%29.86 "HgN/A
12:00 AM82 °FWarm.10 mph79%29.86 "HgN/A
11:00 PM
Sep 19
82 °FWarm.12 mph79%29.89 "HgN/A
10:00 PM82 °FWarm.15 mph79%29.89 "HgN/A
9:00 PM82 °FWarm.15 mph84%29.83 "HgN/A
8:00 PM84 °FWarm.14 mph79%29.83 "HgN/A
7:00 PM84 °FPassing clouds.13 mph74%29.80 "HgN/A
6:00 PM84 °FWarm.15 mph74%29.80 "HgN/A
Weather by CustomWeather, © 2014

See weather overviewHow to use our weather pages